Flag for Italy Weather past 2 weeks in Palermo, Italy

Now
77 °F

Passing clouds.


Feels Like: 79 °F
Forecast: 75 / 82 °F
Wind: 16 mph from Northwest

Location: Palermo / Punta Raisi

Current Time: Sep 3, 2014 at 7:16:51 AM

Latest Report: Sep 3, 2014 at 6:50 AM


Visibility: N/A

Pressure: 29.77 "Hg

Humidity: 69%

Dew point: 66 °F

Location of PalermoLocation

Historic Weather in Palermo — Graph

°F

Palermo temperature yesterday

Maximum temperature yesterday: 81 °F (at 10:20 AM)
Minimum temperature yesterday: 73 °F (at 4:20 AM)
Average temperature yesterday: 76 °F

Past Weeks' High & Low Weather Summary

 TemperatureHumidityPressure
High91 °F (Aug 19, 3:50 PM)94% (Aug 21, 4:20 AM)30.07 "Hg (Aug 21, 4:20 AM)
Low68 °F (Aug 26, 6:50 AM)28% (Aug 19, 9:50 PM)29.71 "Hg (Sep 1, 3:50 PM)
Average80 °F71%29.95 "Hg
* Reported Aug 19 5:20 AM — Sep 3 5:50 AM, Palermo, Weather by CustomWeather, © 2014

Note: Actual official high and low records may vary slightly from our data, if they occured in-between our weather recording intervals... More about our weather records

Advertising

Palermo weather history for previous 24 hours

 ConditionsComfort  
Time TempWeatherWind HumidityBarometerVisibility
5:50 AM
Sep 3
77 °FPassing clouds.16 mph65%29.77 "HgN/A
5:20 AM77 °FPassing clouds.16 mph69%29.77 "HgN/A
4:50 AM77 °FPassing clouds.17 mph65%29.77 "HgN/A
4:20 AM77 °FPassing clouds.17 mph69%29.77 "HgN/A
3:50 AM77 °FPassing clouds.17 mph69%29.77 "HgN/A
3:20 AM77 °FPassing clouds.18 mph69%29.77 "HgN/A
2:50 AM77 °FPassing clouds.18 mph65%29.77 "HgN/A
2:20 AM77 °FPassing clouds.18 mph74%29.77 "HgN/A
1:50 AM77 °FPassing clouds.16 mph69%29.77 "HgN/A
1:20 AM77 °FPassing clouds.16 mph69%29.77 "HgN/A
12:50 AM75 °FPassing clouds.17 mph74%29.80 "HgN/A
12:20 AM77 °FPassing clouds.16 mph69%29.80 "HgN/A
11:50 PM
Sep 2
77 °FPassing clouds.15 mph69%29.80 "HgN/A
11:20 PM77 °FPassing clouds.16 mph69%29.80 "HgN/A
10:50 PM77 °FPassing clouds.15 mph69%29.80 "HgN/A
10:20 PM77 °FPassing clouds.14 mph69%29.80 "HgN/A
9:50 PM75 °FPassing clouds.15 mph74%29.80 "HgN/A
9:20 PM77 °FPassing clouds.16 mph65%29.80 "HgN/A
8:50 PM75 °FPassing clouds.15 mph69%29.77 "HgN/A
8:20 PM75 °FScattered clouds.16 mph69%29.77 "HgN/A
7:50 PM77 °FPartly sunny.16 mph65%29.77 "HgN/A
7:20 PM77 °FScattered clouds.15 mph65%29.77 "HgN/A
6:50 PM77 °FScattered clouds.15 mph69%29.77 "HgN/A
6:20 PM77 °FScattered clouds.16 mph69%29.77 "HgN/A
5:50 PM77 °FScattered clouds.18 mph65%29.74 "HgN/A
5:20 PM77 °FPartly sunny.20 mph69%29.74 "HgN/A
4:50 PM77 °FPartly sunny.20 mph65%29.74 "HgN/A
4:20 PM77 °FScattered clouds.21 mph69%29.74 "HgN/A
3:50 PM75 °FScattered clouds.18 mph74%29.74 "HgN/A
3:20 PM77 °FScattered clouds.20 mph69%29.74 "HgN/A
2:50 PM75 °FScattered clouds.18 mph74%29.74 "HgN/A
2:20 PM75 °FPartly sunny.22 mph69%29.74 "HgN/A
1:50 PM75 °FPartly sunny.22 mph74%29.74 "HgN/A
1:20 PM77 °FScattered clouds.20 mph65%29.74 "HgN/A
12:50 PM75 °FScattered clouds.20 mph69%29.74 "HgN/A
12:20 PM75 °FScattered clouds.21 mph69%29.74 "HgN/A
11:50 AM75 °FScattered clouds.22 mph74%29.74 "HgN/A
11:20 AM77 °FScattered clouds.21 mph69%29.74 "HgN/A
10:50 AM77 °FPartly sunny.21 mph69%29.74 "HgN/A
10:20 AM81 °FScattered clouds.22 mph62%29.74 "HgN/A
9:50 AM77 °FScattered clouds.22 mph69%29.71 "HgN/A
9:20 AM77 °FScattered clouds.24 mph69%29.71 "HgN/A
8:50 AM77 °FScattered clouds.25 mph69%29.71 "HgN/A
8:20 AM77 °FScattered clouds.23 mph69%29.71 "HgN/A
7:50 AM75 °FScattered clouds.24 mph69%29.71 "HgN/A
7:20 AM75 °FPassing clouds.23 mph74%29.71 "HgN/A
Weather by CustomWeather, © 2014

See weather overviewHow to use our weather pages